World > North America > United States > Illinois

Burlington, Illinois Regional Weather

Lat: 42.05N, Lon: 88.55W
Wx Zone: ILZ012Web Search
Burlington Weather Warning NWS WEATHER ALERT FOR THE BURLINGTON, IL AREA - Issued: 1242 PM CDT Fri May 7 2021 Burlington Weather Warning  

Ads allow us to feed your daily addiction for the world's greatest weather information. We're determined to offer quality sponsors, in the least annoying way possible.

Feedback


°F Click to change Burlington hourly weather to Imperial units.Click to change Burlington hourly weather to Metric units. °C
Burlington Weather Map
UTC Time: 5/7/2021, 18:56
Your Time:

Burlington, IL Regional Weather

Expires:202105071900;;745649
ASUS43 KLOT 071809
RWRIL 

ILLINOIS REGIONAL WEATHER ROUNDUP
NATIONAL WEATHER SERVICE CHICAGO/ROMEOVILLE IL
100 PM CDT FRI MAY 07 2021

NOTE: "FAIR" INDICATES FEW OR NO CLOUDS BELOW 12,000 FEET WITH NO
SIGNIFICANT WEATHER AND/OR OBSTRUCTIONS TO VISIBILITY.

* THESE STATIONS ARE NOT UNDER NWS QUALITY CONTROL. THEY ALSO MAY NOT
  REPORT WEATHER SUCH AS PRECIPITATION OR FOG.


ILZ005-006-012>014-019>023-071900-
NORTHEAST ILLINOIS
  
CITY           SKY/WX    TMP DP  RH WIND       PRES   REMARKS
CHICAGO-OHARE  PTSUNNY   58  29  33 NW13G22   29.98S                  
6HR MIN TEMP:  46; 6HR MAX TEMP:  60;                                

CHICAGO-MIDWAY PTSUNNY   59  30  33 NW14G22   29.97F                  
6HR MIN TEMP:  46; 6HR MAX TEMP:  60; 6HR PCP: TRACE;                

AURORA         MOSUNNY   59  32  36 N20G28    29.98F                  
6HR MIN TEMP:  46; 6HR MAX TEMP:  59; 6HR PCP: TRACE;                

JOLIET*        PTSUNNY   61  37  42 N12G18    29.98S                  
WAUKEGAN       PTSUNNY   54  29  38 N13G24    29.99R                  
6HR MIN TEMP:  45; 6HR MAX TEMP:  57;                                

DUPAGE AIRPORT MOSUNNY   59  30  33 NW12G26   29.99R                  
6HR MIN TEMP:  45; 6HR MAX TEMP:  59;                                

KANKAKEE*      MOSUNNY   63  37  39 NW12G20   29.96F                  
WHEELING       MOSUNNY   60  29  30 NW16      30.00S                  
6HR MIN TEMP:  49; 6HR MAX TEMP:  60;                                

MORRIS*        CLOUDY    60  35  38 N10       29.96F                  
ROMEOVILLE*    PTSUNNY   60  36  41 N18       29.98S                  
LANSING*       CLOUDY    53  38  57 NE10      29.98R                  
NORTHERLY ISL*   N/A     50  41  71 NE12        N/A                   
$$


SKY/WX - Weather  TMP - Temperature  DP - Dew Point  RH - Relative Humidity
WIND - Wind Direction/Speed PRES - Barometric Pressure VSB - Visibility
WCI - Wind Chill Index E13G22 Wind - East Wind 13 mph/Gusts of 22 mph